KDFW

Dallas-Fort Worth International Airport

Airport
ICAO code
KDFW
IATA Code
DFW
Summary
ICAO Region
NAM
ICAO Territory
Location

Dallas, Texas,

Serving
Dallas
Elevation
607 ft
Coordinates
32° 53' 55" N , 97° 2' 25" W
KCC
Airport LOS
Parallel Runway Operation
Metar
Observation
KDFW 260553Z 02009KT 10SM FEW250 26/08 A3002 RMK AO2 SLP156 T02560078 10311 20256 403670239 50007
Station
Dallas / Fort Worth, Dallas / Fort Worth International Airport
Date/Time
2022-09-26 05:53:00
Wind direction
20°
Wind speed
09 kts
Lowest cloud amount
few clouds
Temperature
25.6°C
Dew point
7.8°C
Humidity
32%
Weather condition
n/a

Description

Large International airport serving the cities of Dallas and Fort Worth, Texas, USA.

Climatology

Humid “subtropical” climate (Köppen climate classification Cfa) - characterized by hot, humid summers and cool winters. Significant amounts of precipitation occur in all seasons in most areas. Winter rainfall (and sometimes snowfall) is associated with large storms that the westerlies steer from west to east. Most summer rainfall occurs during thunderstorms and occasional tropical storms (hurricanes).

Airport map

Aerial View

SKYbrary Partners:

Safety knowledge contributed by: